Tracking 25193 objects as of 17-Jan-2022
HD Live streaming from Space Station
objects crossing your sky now

STARLINK-2301

Track STARLINK-2301 now!
10-day predictions
STARLINK-2301 is classified as:


NORAD ID: 48021
Int'l Code: 2021-024AW
Perigee: 552.6 km
Apogee: 556.1 km
Inclination: 53.1 °
Period: 95.6 minutes
Semi major axis: 6925 km
RCS: Unknown
Launch date: March 24, 2021
Source: United States (US)
Launch site: AIR FORCE EASTERN TEST RANGE (AFETR)
aabbcc
Your satellite tracking list
Your tracking list is empty




NASA's NSSDC Master Catalog

Two Line Element Set (TLE):
1 48021U 21024AW  22016.93050245  .00003437  00000-0  24947-3 0  9999
2 48021  53.0548 222.6566 0002562  70.6006 289.5260 15.06408329 47411
Source of the keplerian elements: AFSPC